Walla Walla, WA
on Wednesday, November 14, 2012

Wednesday
Previous Day Next Day
Daily Summary
 ActualAverage (KPDT)Record (KPDT)
Temperature
Mean Temperature °F 42°F  
Max Temperature 46°F 50°F 72°F (1953)
Min Temperature 37°F 34°F -4°F (1955)
Degree Days
Heating Degree Days 24 23  
Month to date heating degree days 292  
Since 1 July heating degree days 834  
Cooling Degree Days 0 0  
Month to date cooling degree days 0  
Year to date cooling degree days 636  
Moisture
Dew Point 40°F   
Average Humidity 93    
Maximum Humidity 100    
Minimum Humidity 87    
Precipitation
Precipitation 0.02 in 0.05 in 0.53 in (1963)
Month to date precipitation 0.70  
Year to date precipitation 10.37  
Snow
Snow 0.00 in 0.10 in 1.50 in (1980)
Month to date snowfall 0.3  
Year to date snowfall 8.1  
Since 1 July snowfall 0.4  
Snow Depth in   
Wind
Wind Speed 3 mph   
Max Wind Speed 8 mph   
Max Gust Speed mph   
Visibility 3 miles   
Events Fog , Rain   

Key: T is trace of precipitation, MM is missing value
Source: NWS Daily Summary
Time(PST)TemperatureDew PointHumidity Pressure Visibility Wind DirectionWind SpeedGust SpeedPrecipitationEvents Conditions
12:03 AM 39.2°F 37.4°F 93% 30.21 in 0.2 miles West 8.1 mph - 0.00 in Fog , Rain Light Rain
12:53 AM 39.0°F 37.9°F 96% 30.25 in 0.2 miles SW 3.5 mph - 0.00 in Fog Fog
1:53 AM 39.0°F 39.0°F 100% 30.25 in 0.2 miles South 3.5 mph - N/A Fog Fog
2:08 AM 39.2°F 39.2°F 100% 30.22 in 0.2 miles South 3.5 mph - N/A Fog Fog
2:53 AM 39.0°F 37.9°F 96% 30.24 in 0.2 miles SSE 4.6 mph - N/A Fog Fog
3:04 AM 39.2°F 37.4°F 93% 30.21 in 0.2 miles SSE 3.5 mph - N/A Fog Fog
3:33 AM 39.2°F 37.4°F 93% 30.21 in 0.8 miles Calm Calm - N/A   Mist
3:48 AM 39.2°F 37.4°F 93% 30.21 in 2.0 miles Calm Calm - N/A   Overcast
3:49 AM 39.0°F 37.9°F 96% 30.24 in 2.0 miles Calm Calm - N/A   Overcast
3:56 AM 39.2°F 37.4°F 93% 30.21 in 1.8 miles Calm Calm - N/A   Overcast
4:03 AM 39.2°F 37.4°F 93% 30.21 in 3.0 miles Calm Calm - N/A   Overcast
4:10 AM 39.2°F 37.4°F 93% 30.21 in 2.5 miles Calm Calm - N/A   Overcast
4:21 AM 39.2°F 37.4°F 93% 30.21 in 4.0 miles ESE 4.6 mph - N/A   Overcast
4:53 AM 39.0°F 37.9°F 96% 30.23 in 5.0 miles ESE 4.6 mph - N/A   Overcast
5:00 AM 39.2°F 37.4°F 93% 30.21 in 6.0 miles Calm Calm - N/A   Mostly Cloudy
5:53 AM 37.9°F 37.0°F 97% 30.24 in 3.0 miles Calm Calm - N/A   Overcast
6:24 AM 39.2°F 37.4°F 93% 30.22 in 1.8 miles NNE 4.6 mph - N/A   Overcast
6:38 AM 39.2°F 37.4°F 93% 30.23 in 0.5 miles Calm Calm - N/A Fog Fog
6:53 AM 37.9°F 37.0°F 97% 30.26 in 1.0 miles North 4.6 mph - N/A   Overcast
7:19 AM 39.2°F 37.4°F 93% 30.24 in 2.5 miles NNE 6.9 mph - N/A   Overcast
7:53 AM 41.0°F 39.0°F 93% 30.28 in 2.5 miles North 4.6 mph - N/A   Overcast
8:30 AM 42.8°F 39.2°F 87% 30.27 in 2.0 miles Calm Calm - 0.00 in   Overcast
8:39 AM 42.8°F 39.2°F 87% 30.27 in 2.0 miles Calm Calm - 0.00 in Rain Light Rain
8:53 AM 42.1°F 41.0°F 96% 30.30 in 1.5 miles Calm Calm - 0.00 in Rain Light Rain
9:17 AM 42.8°F 41.0°F 93% 30.27 in 1.5 miles Calm Calm - 0.00 in Rain Light Rain
9:53 AM 43.0°F 41.0°F 93% 30.30 in 1.5 miles Calm Calm - 0.01 in Rain Light Rain
10:00 AM 44.6°F 41.0°F 87% 30.27 in 3.0 miles Calm Calm - 0.00 in Rain Light Rain
10:53 AM 44.1°F 42.1°F 93% 30.30 in 3.0 miles ENE 3.5 mph - 0.01 in Rain Light Rain
11:53 AM 46.0°F 44.1°F 93% 30.30 in 4.0 miles Variable 3.5 mph - 0.00 in   Mostly Cloudy
12:21 PM 46.4°F 44.6°F 93% 30.28 in 2.5 miles NW 6.9 mph - N/A   Scattered Clouds
12:36 PM 46.4°F 44.6°F 93% 30.28 in 2.5 miles WNW 8.1 mph - N/A   Mostly Cloudy
12:46 PM 46.4°F 44.6°F 93% 30.28 in 4.0 miles WNW 8.1 mph - N/A   Overcast
12:53 PM 46.0°F 43.0°F 89% 30.31 in 4.0 miles NW 4.6 mph - N/A   Overcast
1:53 PM 46.0°F 43.0°F 89% 30.31 in 4.0 miles Calm Calm - N/A   Overcast
2:53 PM 46.0°F 43.0°F 89% 30.31 in 4.0 miles West 4.6 mph - N/A   Overcast
3:53 PM 45.0°F 42.1°F 90% 30.31 in 4.0 miles West 3.5 mph - N/A   Overcast
4:53 PM 45.0°F 42.1°F 90% 30.32 in 5.0 miles NW 3.5 mph - N/A   Overcast
5:53 PM 44.1°F 42.1°F 93% 30.33 in 5.0 miles North 4.6 mph - N/A   Overcast
6:53 PM 44.1°F 41.0°F 89% 30.34 in 5.0 miles North 5.8 mph - N/A   Overcast
7:53 PM 44.1°F 42.1°F 93% 30.34 in 5.0 miles NNE 3.5 mph - N/A   Overcast
8:53 PM 44.1°F 42.1°F 93% 30.34 in 4.0 miles NW 4.6 mph - N/A   Overcast
9:53 PM 43.0°F 41.0°F 93% 30.35 in 4.0 miles North 4.6 mph - N/A   Overcast
10:34 PM 42.8°F 41.0°F 93% 30.32 in 2.5 miles North 3.5 mph - N/A   Overcast
10:53 PM 42.1°F 41.0°F 96% 30.35 in 2.5 miles North 3.5 mph - N/A   Overcast
11:14 PM 42.8°F 41.0°F 93% 30.32 in 2.5 miles Calm Calm - N/A   Overcast
11:38 PM 42.8°F 41.0°F 93% 30.32 in 2.0 miles Calm Calm - N/A   Overcast
11:53 PM 42.1°F 41.0°F 96% 30.34 in 2.0 miles Calm Calm - N/A   Overcast
Moon Phase
Nov. 14 Nov. 20 Nov. 28 Dec. 06 Dec. 13
Sunrise:06:53 AM (PST) Moon Rise:07:51 AM (PST)11/14
Sunset:04:21 PM (PST) Moon Set:05:11 PM (PST)11/14

Copyright © 2014 The Weather Underground, Inc.